JI1UWB-13 Weather Reports


time (UTC)temp
C
wind
direction
speed
KPH
gust
KPH
rain 1hr
cm
rain 24hr
cm
rain mn
cm
humidity
%
barometer
mb
20260505164518 17 251 1.6 4.8 0.00 0.00 0.00 59 1023.2
20260505163517 17 237 1.6 8.0 0.00 0.00 0.00 58 1023.3
20260505162516 17 258 1.6 6.4 0.00 0.00 0.00 59 1023.3
20260505161518 17 235 1.6 4.8 0.00 0.00 0.00 59 1023.4
20260505160538 16 246 1.6 4.8 0.00 0.00 0.00 60 1023.3
20260505152556 17 252 1.6 3.2 0.00 0.00 0.00 63 1023.4
20260505151518 17 287 1.6 3.2 0.00 0.00 0.00 63 1023.5
20260505150518 17 248 3.2 8.0 0.00 0.00 0.00 63 1023.5
20260505140518 17 286 1.6 4.8 0.00 0.00 0.00 55 1023.6
20260505124539 17 293 1.6 4.8 0.00 0.00 0.00 50 1023.3
20260505123518 17 332 1.6 3.2 0.00 0.00 0.00 49 1023.2
20260505122537 17 317 1.6 6.4 0.00 0.00 0.00 48 1023.3
20260505121518 17 317 1.6 6.4 0.00 0.00 0.00 47 1023.2
20260505120538 17 316 1.6 6.4 0.00 0.00 0.00 47 1023.3
20260505115516 17 327 1.6 3.2 0.00 0.00 0.00 47 1023.2
20260505114518 17 314 1.6 3.2 0.00 0.00 0.00 47 1023.1
20260505113517 17 310 1.6 6.4 0.00 0.00 0.00 46 1023.2
20260505112516 17 3 1.6 8.0 0.00 0.00 0.00 45 1023.1
20260505111518 17 347 1.6 3.2 0.00 0.00 0.00 44 1023.0
20260505110518 17 318 1.6 4.8 0.00 0.00 0.00 44 1022.9
20260505101519 17 276 1.6 4.8 0.00 0.00 0.00 36 1022.4
20260505100517 17 260 3.2 8.0 0.00 0.00 0.00 39 1022.2
20260505095516 18 343 1.6 4.8 0.00 0.00 0.00 40 1022.0
20260505094519 18 261 3.2 6.4 0.00 0.00 0.00 40 1022.0
20260505093517 18 247 1.6 6.4 0.00 0.00 0.00 42 1021.9
20260505092516 18 325 1.6 4.8 0.00 0.00 0.00 43 1021.7
20260505091518 18 239 3.2 9.7 0.00 0.00 0.00 43 1021.5
20260505090518 19 277 3.2 8.0 0.00 0.00 0.00 41 1021.3
20260505085517 20 348 1.6 3.2 0.00 0.00 0.00 41 1021.1
20260505084519 20 347 1.6 3.2 0.00 0.00 0.00 39 1020.9
20260505083518 21 335 3.2 6.4 0.00 0.00 0.00 37 1020.8
20260505082517 22 290 1.6 6.4 0.00 0.00 0.00 33 1020.7
20260505081518 23 299 3.2 6.4 0.00 0.00 0.00 30 1020.6
20260505080518 23 300 1.6 4.8 0.00 0.00 0.00 27 1020.6
20260505075517 23 268 3.2 8.0 0.00 0.00 0.00 25 1020.5
20260505074519 24 326 1.6 6.4 0.00 0.00 0.00 22 1020.5
20260505073518 24 279 3.2 8.0 0.00 0.00 0.00 21 1020.4
20260505072517 25 322 1.6 4.8 0.00 0.00 0.00 21 1020.2
20260505071516 25 294 1.6 4.8 0.00 0.00 0.00 19 1020.1
20260505070538 25 295 1.6 4.8 0.00 0.00 0.00 17 1020.0
20260505065517 25 327 1.6 6.4 0.00 0.00 0.00 16 1020.1
20260505064519 26 333 1.6 6.4 0.00 0.00 0.00 14 1019.9
20260505063518 26 315 1.6 4.8 0.00 0.00 0.00 14 1019.9
20260505062517 26 271 1.6 6.4 0.00 0.00 0.00 15 1019.9
20260505061519 26 345 1.6 4.8 0.00 0.00 0.00 15 1019.8
20260505060517 26 256 1.6 6.4 0.00 0.00 0.00 15 1019.8
20260505055557 26 358 1.6 3.2 0.00 0.00 0.00 14 1019.6
20260505054559 26 80 1.6 6.4 0.00 0.00 0.00 14 1019.6
20260505053518 26 37 1.6 4.8 0.00 0.00 0.00 13 1019.6
20260505052516 26 88 3.2 6.4 0.00 0.00 0.00 13 1019.7
20260505051519 26 10 1.6 3.2 0.00 0.00 0.00 13 1019.8
20260505050518 25 88 1.6 6.4 0.00 0.00 0.00 14 1020.1
20260505041516 25 15 3.2 8.0 0.00 0.00 0.00 15 1020.4
20260505040518 25 15 1.6 3.2 0.00 0.00 0.00 15 1020.4
20260505035517 23 257 1.6 3.2 0.00 0.00 0.00 15 1020.4
20260505034516 23 31 3.2 6.4 0.00 0.00 0.00 16 1020.4
20260505033519 24 359 1.6 4.8 0.00 0.00 0.00 16 1020.4
20260505032537 23 27 1.6 4.8 0.00 0.00 0.00 15 1020.5
20260505031519 23 40 3.2 6.4 0.00 0.00 0.00 16 1020.5
20260505030518 24 10 1.6 4.8 0.00 0.00 0.00 15 1020.5
20260505025517 23 348 1.6 6.4 0.00 0.00 0.00 15 1020.4
20260505024519 24 27 1.6 6.4 0.00 0.00 0.00 15 1020.5
20260505023517 23 11 1.6 4.8 0.00 0.00 0.00 15 1020.7
20260505022516 22 358 3.2 9.7 0.00 0.00 0.00 15 1020.6
20260505021519 23 20 1.6 4.8 0.00 0.00 0.00 17 1020.8
20260505020518 22 293 1.6 6.4 0.00 0.00 0.00 17 1020.8
20260505015537 22 55 1.6 4.8 0.00 0.00 0.00 17 1020.8
20260505014519 22 11 1.6 8.0 0.00 0.00 0.00 19 1020.8
20260505013517 21 320 1.6 4.8 0.00 0.00 0.00 19 1020.7
20260505012519 21 329 3.2 9.7 0.00 0.00 0.00 20 1020.8
20260505011517 21 314 3.2 11.3 0.00 0.00 0.00 21 1020.7
20260505010516 21 358 3.2 8.0 0.00 0.00 0.00 20 1020.8
20260505005518 20 352 3.2 6.4 0.00 0.00 0.00 21 1020.7
20260505004517 21 301 1.6 6.4 0.00 0.00 0.00 21 1020.6
20260505003537 20 18 3.2 8.0 0.00 0.00 0.00 23 1020.6
20260505002518 20 300 3.2 8.0 0.00 0.00 0.00 23 1020.5
20260505001517 19 331 1.6 6.4 0.00 0.00 0.00 24 1020.5
20260505000516 19 309 3.2 8.0 0.00 0.00 0.00 24 1020.4
20260504235519 20 336 3.2 6.4 0.00 0.00 0.00 24 1020.5
20260504234517 19 339 3.2 8.0 0.00 0.00 0.00 25 1020.5
20260504233516 18 301 3.2 6.4 0.00 0.00 0.00 27 1020.5
20260504232538 18 301 3.2 8.0 0.00 0.00 0.00 28 1020.6
20260504231557 18 289 3.2 9.7 0.00 0.00 0.00 28 1020.6
20260504230516 18 290 3.2 8.0 0.00 0.00 0.00 27 1020.6
20260504225518 18 303 3.2 6.4 0.00 0.00 0.00 28 1020.4
20260504224517 17 313 1.6 8.0 0.00 0.00 0.00 29 1020.2
20260504223516 17 288 1.6 9.7 0.00 0.00 0.00 31 1020.1
20260504222518 17 308 3.2 6.4 0.00 0.00 0.00 32 1020.2
20260504221517 16 297 3.2 9.7 0.00 0.00 0.00 33 1020.1
20260504220516 16 298 1.6 9.7 0.00 0.00 0.00 33 1019.9
20260504215518 16 315 3.2 8.0 0.00 0.00 0.00 34 1019.9
20260504214517 16 284 3.2 8.0 0.00 0.00 0.00 35 1019.9
20260504213519 16 315 1.6 4.8 0.00 0.00 0.00 35 1019.7
20260504212518 16 323 1.6 6.4 0.00 0.00 0.00 35 1019.5
20260504211516 15 337 1.6 6.4 0.00 0.00 0.00 36 1019.3
20260504210519 14 316 1.6 6.4 0.00 0.03 0.00 38 1019.0
20260504205518 13 309 1.6 6.4 0.00 0.05 0.00 40 1018.7
20260504204516 13 300 1.6 4.8 0.00 0.05 0.00 41 1018.4
20260504203519 13 359 1.6 6.4 0.00 0.08 0.00 42 1018.2
20260504202518 13 325 1.6 6.4 0.00 0.10 0.00 42 1018.2
20260504201537 13 38 1.6 4.8 0.00 0.10 0.00 42 1018.0
20260504200515 13 354 1.6 4.8 0.00 0.18 0.00 43 1017.6
20260504195518 13 298 1.6 4.8 0.00 0.18 0.00 42 1017.3
20260504194517 13 10 1.6 4.8 0.00 0.18 0.00 42 1017.1
20260504193519 13 14 1.6 4.8 0.00 0.20 0.00 42 1016.8
20260504192518 13 347 3.2 8.0 0.00 0.20 0.00 42 1016.5
20260504191517 13 345 3.2 6.4 0.00 0.20 0.00 43 1016.2
20260504190559 13 345 1.6 6.4 0.00 0.20 0.00 42 1016.0
20260504185517 13 2 1.6 9.7 0.00 0.20 0.00 42 1015.8
20260504184516 13 18 3.2 9.7 0.00 0.20 0.00 42 1015.6
20260504183519 13 308 3.2 11.3 0.00 0.20 0.00 43 1015.4
20260504182517 13 313 3.2 6.4 0.00 0.20 0.00 44 1015.4
20260504181517 13 3 1.6 6.4 0.00 0.20 0.00 44 1015.2
20260504180519 13 4 3.2 9.7 0.00 0.20 0.00 44 1015.0
20260504175518 13 338 3.2 9.7 0.00 0.20 0.00 44 1014.8
20260504174519 13 351 3.2 8.0 0.00 0.20 0.00 44 1014.4
20260504173517 13 348 3.2 6.4 0.00 0.20 0.00 43 1014.2
20260504172536 13 3 3.2 14.5 0.00 0.20 0.00 43 1013.9
20260504171538 13 358 3.2 8.0 0.00 0.20 0.00 43 1013.7
20260504170517 13 2 4.8 9.7 0.00 0.20 0.00 42 1013.6